Find Local Weather

World > North America > United States > New York

Mohawk, New York Regional Weather

Lat: 43.01N, Lon: 75.01W
Wx Zone: NYZ038
Feedback
Expires:201804241900;;437948
ASUS41 KGYX 241810
RWRGYX
WEATHER ROUNDUP FOR MAINE AND NEW HAMPSHIRE
NATIONAL WEATHER SERVICE GRAY ME
200 PM EDT TUE APR 24 2018


MAZ007-012-024-CTZ003-RIZ002-NYZ038-NYZ072-241900-
SOUTHERN NEW ENGLAND AND NY
  
CITY           SKY/WX    TMP DP  RH WIND       PRES   REMARKS
BOSTON         FAIR      67  31  26 S17       30.31F                  
WORCESTER      FAIR      63  25  23 SW15G21   30.31F                  
NANTUCKET      FAIR      54  40  59 S12       30.41F                  
PROVIDENCE     PTSUNNY   61  44  53 SE21      30.36F                  
HARTFORD       PTSUNNY   68  22  17 S20       30.31F                  
ALBANY         FAIR      69  20  15 S14G23    30.25F                  
NEW YORK CITY  PTSUNNY   65  36  34 S17G24    30.33F                  
$$


SKY/WX - Weather  TMP - Temperature  DP - Dewpoint  RH - Relative Humidity
WIND - Wind Direction/Speed PRES - Barometric Pressure